Weather in Blanes

Spain     41°40′44″N   2°46′50″E
temp.,
°C
wind,
m/s
gust,
m/s
humid.,
%
clouds,
%
prec.,
mm/h
press.,
hPa
HPBL,
m
17 may, tue
tue1723:00+17w1182100 0.0 102011
02:00+16wnw118554 0.0 101911
05:00+16n11820 0.0 101914
08:00+19n11690 0.0 101970
11:00+24sse32525 0.0 1019622
14:00+25sse44525 0.0 1018519
17:00+24sse46550 0.0 1017477
20:00+20sse22703 0.0 1017179
18 may, wed
wed1823:00+17w11830 0.0 101911
02:00+18nw11775 0.0 101811
05:00+18nw11755 0.0 101811
08:00+22nw126484 0.0 101943
11:00+30ese23376 0.0 10191161
14:00+27sse4548100 0.0 1019477
17:00+27s454837 0.0 1018565
20:00+23s24668 0.0 1018145
19 may, thu
thu1923:00+18wsw11815 0.0 101912
02:00+18ssw11806 0.0 102012
05:00+17sw018197 0.0 102011
08:00+19nne127552 0.0 102288
11:00+25sse335342 0.0 1022638
14:00+26sse564981 0.0 1022595
17:00+24sse46545 0.0 1022437
20:00+22s35645 0.0 1022199
20 may, fri
fri2023:00+18ssw22735 0.0 102329
02:00+17sw22645 0.0 102315
05:00+17ssw22625 0.0 102313
08:00+19ssw236276 0.0 102487
11:00+25s364846 0.0 1024511
14:00+28s684054 0.0 1023646
17:00+26s584488 0.0 1022516
20:00+21s377150 0.0 1022220
21 may, sat
sat2123:00+18ssw228035 0.0 102322
02:00+17wsw117213 0.0 102311
05:00+16n226664 0.0 102213
08:00+19nne126112 0.0 102278
11:00+26sse334213 0.0 1021565
14:00+28s46408 0.0 1019559
17:00+30s583035 0.0 1017527
20:00+23s355561 0.0 1016114